Regional Weather Roundup
Issued by NWS

Home | Current Version | Previous Version | Graphics & Text | Print | Product List | Glossary On
Versions: 1 2 3 4 5 6 7 8 9 10 11 12 13 14 15 16 17 18 19 20 21 22 23 24 25 26 27 28 29 30 31 32 33 34 35 36 37 38 39 40 41 42 43 44 45 46 47 48 49 50
826
ASUS43 KBIS 250002
RWRND

NORTH DAKOTA REGIONAL WEATHER ROUNDUP
NATIONAL WEATHER SERVICE BISMARCK ND
700 PM CDT SUN SEP 24 2017

NOTE: "FAIR" INDICATES FEW OR NO CLOUDS BELOW 12,000 FEET WITH NO
SIGNIFICANT WEATHER AND/OR OBSTRUCTIONS TO VISIBILITY.


NDZ001>003-009>011-017-250100-
NORTHWEST NORTH DAKOTA

CITY           SKY/WX    TMP DP  RH WIND       PRES   REMARKS
WILLISTON      CLOUDY    48  42  80 CALM      30.11F
6HR MIN TEMP:  47; 6HR MAX TEMP:  49; 6HR PCP: TRACE;

MINOT          CLOUDY    50  45  83 NW9       30.07R
MINOT AFB      CLOUDY    49  45  87 NW10      30.06R
$$

NDZ018>021-031>035-040>046-250100-
SOUTHWEST NORTH DAKOTA

CITY           SKY/WX    TMP DP  RH WIND       PRES   REMARKS
BISMARCK       CLOUDY    52  46  80 NW10      30.07R
6HR MIN TEMP:  50; 6HR MAX TEMP:  53; 6HR PCP: TRACE;

DICKINSON      CLOUDY    45  42  89 N8        30.09R
GARRISON         N/A     48  43  82 NW12      30.07S
6HR MIN TEMP:  47; 6HR MAX TEMP:  50;

HETTINGER ARPT CLOUDY    46  41  82 N7        30.11R
$$

NDZ004>008-012>016-024-026-027-054-250100-
NORTHEAST NORTH DAKOTA

CITY           SKY/WX    TMP DP  RH WIND       PRES   REMARKS
GRAND FORKS    CLOUDY    53  50  89 N13       29.94R
GRND FRKS AFB  CLOUDY    54  54 100 N14       29.96R
DEVILS LAKE    CLOUDY    49  46  90 NW15      30.01R
$$

NDZ022-023-025-028>030-036>039-047>053-250100-
SOUTHEAST NORTH DAKOTA

CITY           SKY/WX    TMP DP  RH WIND       PRES   REMARKS
FARGO          CLOUDY    53  52  96 NW14      29.93F
6HR MIN TEMP:  53; 6HR MAX TEMP:  57; 6HR PCP:  0.12;

JAMESTOWN      CLOUDY    50  47  89 N13       30.00R
$$





USA.gov is the U.S. government's official web portal to all federal, state and local government web resources and services.